[[{"header":{"parameterUnit":"m.s-1","parameterCategory":1,"la1":30.2991,"la2":30.254,"lo1":-89.0895,"lo2":-89.0444,"dy":0.0017,"dx":0.0017,"nx":28,"ny":28,"refTime":"2024-12-23T03:00:00:Z","depth":0,"parameterNumber":2,"parameterNumberName":"U-component_of_WINDS"},"data":[0,0,0,0,0,0,0,0,0,0,0,0,0,0,0,0,0,0,0,0,0,0,0,0,0,0,0,0,0,0,0,0,0,0,0,0,0,0,0,0,0,0,0,0,0,0,0,0,0,0,0,0,0,0,0,0,0,0,-4.4164,-4.4163,0,-4.4131,-4.413,-4.413,-4.3966,-4.3962,-4.3958,-4.3954,-4.3922,-4.3925,-4.3928,0,0,0,0,0,0,0,0,0,0,0,0,0,-4.4089,-4.4092,-4.4164,-4.4163,-4.4163,-4.4131,-4.413,-4.413,-4.3966,-4.3962,-4.3957,-4.3952,-4.3921,-4.3924,-4.3928,0,0,0,0,0,0,0,0,0,0,0,0,0,-4.4096,-4.4092,-4.4164,-4.4078,-4.4069,-4.4131,-4.413,-4.413,-4.3967,-4.3961,-4.3956,-4.395,-4.392,-4.3924,-4.3928,-4.4071,0,0,-4.3941,-4.3943,0,0,0,0,0,0,0,0,-4.4096,-4.4099,-4.4091,-4.4084,-4.4075,-4.4046,-4.4092,-4.411,-4.3969,-4.4006,-4.3954,-4.3947,-4.3968,-4.3968,-4.3975,-4.4069,-4.4068,-4.3941,-4.3944,-4.3946,-4.3947,0,0,0,0,0,0,0,-4.4095,-4.4099,-4.4151,-4.4091,-4.4081,-4.4042,-4.4036,-4.4095,-4.402,-4.4002,-4.399,-4.3989,-4.3963,-4.3971,-4.3973,-4.4067,-4.3941,-4.3945,-4.3947,-4.3949,-4.428,-4.4286,0,0,0,0,0,0,-4.4107,-4.41,-4.4152,-4.415,-4.4071,-4.4048,-4.4041,-4.4061,-4.4019,-4.4007,-4.3994,-4.3981,-4.3967,-4.3968,-4.3971,-4.4136,-4.3946,-4.3949,-4.3952,-4.4273,-4.4281,-4.4288,0,0,0,0,0,0,-4.4106,-4.4113,-4.4153,-4.4121,-4.4124,-4.4055,-4.4079,-4.4064,-4.4072,-4.4013,-4.3999,-4.4016,-4.3962,-4.3965,-4.4047,-4.4133,-4.3951,-4.3955,-4.4266,-4.4276,-4.4284,-4.4468,0,0,0,0,0,0,-4.4104,-4.4113,-4.4166,-4.4124,-4.4126,-4.423,-4.4084,-4.4067,-4.4079,-4.4062,-4.403,-4.4018,-4.3958,-4.4042,-4.4052,-4.4135,-4.3958,-4.4258,-4.427,-4.4281,-4.4454,-4.4483,-4.4507,0,0,0,0,0,-4.4102,-4.4219,-4.4169,-4.4176,-4.419,-4.4235,-4.4236,-4.4163,-4.4087,-4.4139,-4.4102,-4.402,-4.4122,-4.4052,-4.4061,-4.4148,-4.4252,-4.4267,-4.428,-4.4442,-4.4477,-4.4506,0,0,0,0,0,0,-4.4272,-4.4211,-4.4156,-4.4262,-4.4255,-4.4207,-4.4271,-4.4202,-4.4217,-4.4201,-4.411,-4.4105,-4.4201,-4.4182,-4.4105,-4.4285,-4.4173,-4.419,-4.4293,-4.4326,-4.4352,-4.4355,-4.3962,0,0,0,0,0,-4.4322,-4.4363,-4.4308,-4.4407,-4.4406,-4.434,-4.4357,-4.4302,-4.4291,-4.4287,-4.4255,-4.4249,-4.4279,-4.4301,-4.4326,-4.4451,-4.4442,-4.4515,-4.4541,-4.4563,-4.4579,-4.4646,-4.4678,-4.4334,-4.4334,-4.4334,0,0,-4.4426,-4.4398,-4.4429,-4.4441,-4.4428,-4.4474,-4.4338,-4.4392,-4.4425,-4.4295,-4.4371,-4.4348,-4.4335,-4.444,-4.4484,-4.4427,-4.4672,-4.4581,-4.4599,-4.4603,-4.4664,-4.4697,-4.4726,-4.4344,-4.4342,-4.434,0,0,-4.4638,-4.462,-4.4702,-4.4693,-4.4676,-4.4632,-4.4652,-4.4615,-4.4595,-4.467,-4.4574,-4.4613,-4.4667,-4.4662,-4.4667,-4.4881,-4.4806,-4.4892,-4.503,-4.5096,-4.5124,-4.5147,-4.5225,-4.5254,-4.4907,-4.4908,-4.4908,0,-4.4769,-4.4832,-4.4752,-4.4813,-4.4822,-4.4707,-4.479,-4.4785,-4.4779,-4.4788,-4.4724,-4.4792,-4.4774,-4.4877,-4.493,-4.4937,-4.4959,-4.4895,-4.5126,-4.5149,-4.517,-4.5243,-4.5273,-4.4918,-4.4917,-4.4916,-4.4915,0,-4.4995,-4.5042,-4.511,-4.5106,-4.5123,-4.5195,-4.5127,-4.5154,-4.5098,-4.5061,-4.5141,-4.5116,-4.5135,-4.5156,-4.5101,-4.5253,-4.5218,-4.5142,-4.5028,-4.5214,-4.5282,-4.5309,-4.4933,-4.493,-4.4926,-4.4924,0,0,-4.5312,-4.5265,-4.5292,-4.529,-4.5265,-4.5299,-4.5367,-4.5385,-4.5411,-4.5411,-4.5467,-4.5517,-4.5447,-4.5452,-4.5397,-4.5455,-4.5629,-4.5371,-4.537,-4.5422,-4.5796,-4.5855,-4.5888,-4.5579,-4.5584,-4.5588,-4.5798,0,-4.5516,-4.5627,-4.5559,-4.5682,-4.5725,-4.5618,-4.5677,-4.5669,-4.5637,-4.567,-4.5634,-4.5672,-4.5575,-4.5579,-4.5631,-4.5597,-4.5703,-4.558,-4.5632,-4.5635,-4.5639,-4.5923,-4.5984,-4.6183,-4.5823,-4.5828,-4.5831,0,-4.5768,-4.578,-4.5907,-4.5876,-4.5891,-4.5946,-4.5959,-4.5991,-4.5981,-4.5953,-4.5962,-4.5893,-4.5958,-4.5847,-4.5938,-4.5856,-4.5873,-4.586,-4.5865,-4.5868,-4.5745,-4.5935,-4.6244,-4.6275,-4.5872,-4.5868,-4.5865,0,-4.5988,-4.6036,-4.6119,-4.612,-4.6085,-4.6127,-4.6114,-4.6098,-4.6115,-4.6126,-4.6137,-4.6156,-4.6168,-4.6185,-4.6124,-4.6048,-4.6224,-4.6107,-4.6205,-4.6207,-4.6247,-4.6245,-4.6565,-4.6257,-4.6256,-4.6256,-4.6255,0,-4.6223,-4.6306,-4.6218,-4.6269,-4.6359,-4.6281,-4.6373,-4.6349,-4.6336,-4.6382,-4.629,-4.6336,-4.6252,-4.6289,-4.6242,-4.6326,-4.6331,-4.6312,-4.6299,-4.6321,-4.6324,-4.6331,-4.6316,-4.6264,-4.6262,-4.626,-4.6259,0,-4.6484,-4.6428,-4.6512,-4.6473,-4.6465,-4.6534,-4.6501,-4.6548,-4.651,-4.657,-4.6579,-4.6521,-4.6561,-4.6502,-4.6535,-4.6503,-4.6619,-4.6584,-4.6623,-4.6613,-4.6715,-4.6707,-4.7052,-4.7094,-4.6758,-4.6762,-4.6764,0,-4.6638,-4.67,-4.6668,-4.6692,-4.6685,-4.6725,-4.6742,-4.6668,-4.669,-4.6684,-4.6733,-4.6764,-4.6786,-4.6855,-4.6816,-4.6842,-4.6807,-4.6927,-4.6811,-4.6832,-4.6811,-4.6809,-4.6815,-4.6951,-4.6955,-4.6958,-4.6961,0,-4.6919,-4.6888,-4.6916,-4.6935,-4.6958,-4.6969,-4.6974,-4.6999,-4.6922,-4.6951,-4.699,-4.7008,-4.7042,-4.7076,-4.7092,-4.708,-4.7009,-4.6998,-4.7022,-4.7046,-4.7066,-4.7058,-4.6689,-4.699,-4.6987,-4.6985,-4.6983,-4.6982,-4.7131,-4.7182,-4.7168,-4.7203,-4.7199,-4.7206,-4.7249,-4.7218,-4.7249,-4.7271,-4.7226,-4.7278,-4.7268,-4.7283,-4.7279,-4.732,-4.7267,-4.7302,-4.7311,-4.7321,-4.7338,-4.706,-4.7322,-4.7321,-4.732,-4.7319,-4.7319,0,-4.7408,-4.7394,-4.7427,-4.7437,-4.7465,-4.7395,-4.7398,-4.7426,-4.7473,-4.747,-4.7494,-4.7541,-4.7574,-4.7539,-4.7566,-4.7605,-4.7573,-4.7615,-4.7611,-4.761,-4.7382,-4.7359,-4.764,-4.764,-4.764,-4.764,-4.764,-4.764,-4.7555,-4.7638,-4.7607,-4.7687,-4.7673,-4.7723,-4.7731,-4.7738,-4.7735,-4.7792,-4.7819,-4.7796,-4.7781,-4.7807,-4.7835,-4.7823,-4.7838,-4.7892,-4.787,-4.7658,-4.7626,-4.7596,-4.7574,-4.7896,-4.7896,-4.8095,-4.8097,-4.8098]},{"header":{"parameterUnit":"m.s-1","parameterCategory":1,"la1":30.2991,"la2":30.254,"lo1":-89.0895,"lo2":-89.0444,"dy":0.0017,"dx":0.0017,"nx":28,"ny":28,"refTime":"2024-12-23T03:00:00:Z","depth":0,"parameterNumber":3,"parameterNumberName":"V-component_of_WINDS"},"data":[0,0,0,0,0,0,0,0,0,0,0,0,0,0,0,0,0,0,0,0,0,0,0,0,0,0,0,0,0,0,0,0,0,0,0,0,0,0,0,0,0,0,0,0,0,0,0,0,0,0,0,0,0,0,0,0,0,0,0.2572,0.2571,0,0.2546,0.2545,0.2545,0.2597,0.2599,0.2601,0.2603,0.257,0.2568,0.2566,0,0,0,0,0,0,0,0,0,0,0,0,0,0.2663,0.2661,0.2572,0.2571,0.2571,0.2546,0.2545,0.2545,0.2597,0.2599,0.2601,0.2603,0.2571,0.2568,0.2565,0,0,0,0,0,0,0,0,0,0,0,0,0,0.2629,0.2661,0.2572,0.2594,0.2596,0.2546,0.2545,0.2545,0.2597,0.2599,0.2602,0.2604,0.2572,0.2569,0.2565,0.249,0,0,0.2554,0.2552,0,0,0,0,0,0,0,0,0.2631,0.2625,0.2591,0.2593,0.2594,0.2578,0.2566,0.2526,0.2596,0.2596,0.2603,0.2606,0.257,0.2567,0.2556,0.2489,0.2487,0.2553,0.2551,0.2549,0.2548,0,0,0,0,0,0,0,0.2633,0.2627,0.2561,0.2591,0.2593,0.2604,0.2602,0.2559,0.2569,0.2596,0.26,0.2597,0.2572,0.256,0.2556,0.2487,0.2553,0.255,0.2548,0.2546,0.2357,0.2355,0,0,0,0,0,0,0.2633,0.2628,0.2562,0.256,0.2619,0.2601,0.2598,0.258,0.257,0.257,0.2595,0.2599,0.2565,0.256,0.2555,0.2467,0.2549,0.2546,0.2544,0.236,0.2357,0.2354,0,0,0,0,0,0,0.2635,0.2627,0.2563,0.2595,0.2588,0.2596,0.2576,0.2578,0.2566,0.2568,0.257,0.2581,0.2567,0.256,0.2506,0.2466,0.2544,0.2541,0.2363,0.2359,0.2355,0.229,0,0,0,0,0,0,0.2637,0.2627,0.2599,0.2595,0.2586,0.2516,0.2573,0.2576,0.2561,0.2566,0.2555,0.2556,0.2568,0.2512,0.2503,0.2463,0.2538,0.2367,0.2361,0.2356,0.2295,0.2284,0.2274,0,0,0,0,0,0.264,0.258,0.2598,0.2589,0.2552,0.2513,0.2509,0.2525,0.2557,0.2529,0.253,0.2556,0.2473,0.2506,0.2496,0.2454,0.2369,0.2363,0.2357,0.23,0.2286,0.2274,0,0,0,0,0,0,0.2578,0.258,0.2599,0.2536,0.2525,0.2522,0.2487,0.251,0.2487,0.2493,0.2514,0.2511,0.2453,0.2448,0.2485,0.2382,0.2426,0.2418,0.2386,0.2373,0.2362,0.2364,0.2535,0,0,0,0,0,0.2557,0.2527,0.253,0.2474,0.2468,0.2478,0.2462,0.2476,0.2464,0.2459,0.2456,0.2442,0.2413,0.2393,0.2366,0.2296,0.2294,0.2262,0.2252,0.2243,0.2234,0.2197,0.2183,0.2333,0.2333,0.2333,0,0,0.2513,0.2511,0.249,0.2461,0.2454,0.2421,0.2474,0.2436,0.2412,0.2453,0.2402,0.24,0.2386,0.2324,0.2296,0.2318,0.2193,0.2235,0.2228,0.2224,0.2189,0.2175,0.2162,0.2329,0.2329,0.233,0,0,0.2416,0.2411,0.2365,0.2357,0.2346,0.2354,0.2343,0.2338,0.2339,0.2289,0.232,0.229,0.2239,0.2228,0.2216,0.2117,0.214,0.2108,0.2051,0.2014,0.2002,0.1992,0.1956,0.1943,0.21,0.21,0.21,0,0.2361,0.2315,0.2337,0.2299,0.2285,0.2324,0.2276,0.2267,0.2247,0.2236,0.2262,0.22,0.2193,0.2129,0.2106,0.2094,0.2082,0.2108,0.2003,0.1992,0.1983,0.1949,0.1936,0.2096,0.2097,0.2097,0.2097,0,0.2249,0.2216,0.2179,0.2162,0.2145,0.2101,0.2116,0.2096,0.2112,0.2117,0.2067,0.206,0.2033,0.2019,0.2034,0.1957,0.1972,0.2,0.2044,0.1965,0.1933,0.192,0.2091,0.2092,0.2093,0.2094,0,0,0.2108,0.2106,0.2092,0.2085,0.2077,0.2052,0.2011,0.1987,0.1968,0.1954,0.1919,0.1877,0.1904,0.1889,0.1904,0.1872,0.1794,0.1904,0.1904,0.1883,0.1709,0.1687,0.1671,0.181,0.1808,0.1806,0.171,0,0.2012,0.1943,0.1963,0.1893,0.1863,0.1901,0.1865,0.1855,0.186,0.1834,0.1838,0.1807,0.1845,0.1837,0.1808,0.181,0.1759,0.1817,0.1776,0.1775,0.1777,0.1655,0.1631,0.154,0.1698,0.1696,0.1694,0,0.1889,0.1873,0.1801,0.1799,0.1787,0.1755,0.1735,0.1711,0.1701,0.1706,0.1692,0.1713,0.1672,0.1719,0.1662,0.1701,0.1686,0.1684,0.1681,0.1677,0.1728,0.1646,0.1512,0.1498,0.1675,0.1677,0.1678,0,0.1794,0.1753,0.1705,0.1698,0.1695,0.1672,0.1669,0.1663,0.1647,0.163,0.162,0.1597,0.1583,0.1565,0.1579,0.1612,0.1519,0.1567,0.1521,0.1521,0.1498,0.1499,0.1359,0.1491,0.1491,0.1491,0.1492,0,0.1683,0.1637,0.1662,0.1632,0.1582,0.1606,0.1555,0.1557,0.1551,0.1521,0.1552,0.1523,0.1545,0.1517,0.1528,0.1479,0.1473,0.1475,0.1478,0.1471,0.1471,0.146,0.1466,0.1488,0.1488,0.1489,0.149,0,0.1566,0.1582,0.1532,0.1535,0.1534,0.1497,0.1499,0.1471,0.1479,0.1441,0.1433,0.1444,0.1414,0.1427,0.1395,0.1402,0.1339,0.1351,0.1342,0.1345,0.1298,0.1302,0.1144,0.1125,0.1271,0.1269,0.1268,0,0.1494,0.146,0.146,0.1443,0.144,0.1412,0.1397,0.142,0.1403,0.1391,0.1364,0.1337,0.1317,0.1267,0.1271,0.1246,0.1257,0.1204,0.1253,0.1248,0.1255,0.1256,0.1253,0.1193,0.1191,0.119,0.1189,0,0.1363,0.1373,0.1352,0.1333,0.1315,0.1301,0.129,0.1274,0.1296,0.1275,0.1246,0.1231,0.1199,0.1172,0.1151,0.1147,0.117,0.1174,0.1162,0.1153,0.115,0.115,0.1314,0.1177,0.1178,0.1179,0.1179,0.118,0.1266,0.1238,0.1234,0.1209,0.1204,0.1193,0.1167,0.1173,0.1149,0.1127,0.1141,0.1107,0.1099,0.1074,0.1067,0.1039,0.106,0.1043,0.1038,0.1033,0.1026,0.1156,0.1036,0.1036,0.1036,0.1037,0.1037,0,0.1136,0.1136,0.1114,0.1098,0.1078,0.1106,0.1095,0.1076,0.1046,0.1038,0.1019,0.0985,0.0959,0.0963,0.0939,0.0916,0.0927,0.0909,0.091,0.0908,0.1009,0.1022,0.0901,0.0901,0.0901,0.0901,0.0901,0.0901,0.1066,0.102,0.103,0.0982,0.0982,0.095,0.0941,0.0931,0.0925,0.0887,0.0867,0.087,0.0866,0.0843,0.082,0.0822,0.0811,0.0789,0.0794,0.0888,0.0901,0.0914,0.0926,0.0787,0.0786,0.0695,0.0695,0.0694]}]]